sat.trackr.live / text

‹ back to catalog

SHIJIAN-6 03B (SJ-6 03B)

NORAD 33409 · 2008-053B

PAYLOAD ACTIVE UNKNOWN

§ Identity

Operator
Country
PRC
Launch date
2008-10-25
Launch site
TAISC
Launch vehicle
Mass (kg)
RCS (m²)
2.35

External: N2YO · Heavens-Above · Gunter

§ Orbital elements

Epoch: 2026-05-25T05:13:01.185312Z

Period
95.73 min
Inclination
97.8574°
Eccentricity
0.0020613
Mean motion
15.04221419 rev/d
Perigee alt
539.6 km
Apogee alt
568.2 km
Semi-major
6,932.0 km
B*
5.7331e-5
RAAN
164.7296°
Arg perigee
116.3267°
Mean anomaly
244.0079°
Rev number
95,929

§ Raw data

SHIJIAN-6 03B (SJ-6 03B)1 33409U 08053B   26145.21737483  .00000735  00000+0  57331-4 0  99952 33409  97.8574 164.7296 0020613 116.3267 244.0079 15.04221419959293

JSON: /api/v1/satellites/33409 · /tle

For live sub-satellite position, see the globe view (requires WebGL).

§ Visibility from observer

Set your observer location to see the next 7 days of passes ≥ 10°. The values pass through the URL so the page stays shareable.

No JS? Fill the form by hand. The geolocation button needs JavaScript.

§ Radio — SatNOGS DB

ModeDescriptionDownlinkUplink
FM S-band telemetry 2.251 GHz

1 transmitter · refreshed weekly from db.satnogs.org